Location: BAF
(53.9483°N, 27.7497°E)
Time: 23:09:10
(UTC+02:00)

ISS - Pass Details

Date: 30 November 2020
Orbit: 418 x 419 km, 51.6° (Epoch: 16 January)

Event Time Altitude Azimuth Distance (km) Brightness Sun altitude
Rises 19:07:53 0° 276° (W) 2,369 1.3 -27.7°
Reaches altitude 10° 19:10:03 10° 269° (W) 1,502 0.0 -28.0°
Enters shadow 19:11:18 20° 258° (WSW) 1,043 -1.1 -28.2°
